Regional Weather Roundup
Issued by NWS

Home | Current Version | Previous Version | Text Only | Print | Product List | Glossary On
Versions: 1 2 3 4 5 6 7 8 9 10 11 12 13 14 15 16 17 18 19 20 21 22 23 24 25 26 27 28 29 30 31 32 33 34 35 36 37 38 39 40 41 42 43 44 45 46 47 48 49 50
000
ASUS43 KLMK 220802
RWRKY
KENTUCKY REGIONAL WEATHER ROUNDUP
NATIONAL WEATHER SERVICE LOUISVILLE KY
400 AM EDT TUE JUL 22 2014

NOTE "FAIR" INDICATES FEW OR NO CLOUDS BELOW 12,000 FEET
WITH NO SIGNIFICANT WEATHER AND/OR OBSTRUCTIONS TO VISIBILITY.

KYZ001>023-026-027-061>063-070>075-220900-
WESTERN AND SOUTH CENTRAL KENTUCKY

CITY           SKY/WX    TMP DP  RH WIND       PRES   REMARKS
PADUCAH        CLEAR     66  63  90 CALM      30.07R FOG
HENDERSON        N/A     64  61  88 CALM      30.06S VSB 3/4
OWENSBORO      CLEAR     69  66  90 CALM      30.07R
HOPKINSVILLE   CLEAR     69  69  99 N1        30.06S
BOWLING GREEN  PTCLDY    73  68  84 CALM      30.07S
GLASGOW        MOCLDY    71  71  99 CALM      30.08R
$$

KYZ024-025-028>034-038-045-046-053-220900-
NORTH CENTRAL KENTUCKY

CITY           SKY/WX    TMP DP  RH WIND       PRES   REMARKS
LOUISVILLE/SDF PTCLDY    72  68  87 N5        30.07S
LOUISVILLE/LOU CLEAR     72  68  87 NW6       30.08S
FORT KNOX      MOCLDY    69  67  94 N2        30.07S
$$

KYZ035>037-039>044-047>052-055>060-089>105-220900-
NORTHEAST KENTUCKY

CITY           SKY/WX    TMP DP  RH WIND       PRES   REMARKS
LEXINGTON      CLEAR     71  67  87 CALM      30.09F
COVINGTON      CLEAR     71  65  81 E5        30.09F
FRANKFORT      CLEAR     68  66  93 CALM      30.08S
$$

KYZ054-064>069-076>088-106>120-220900-
SOUTHEAST KENTUCKY

CITY           SKY/WX    TMP DP  RH WIND       PRES   REMARKS
JACKSON        PTCLDY    72  67  84 E3        30.12S
LONDON         MOCLDY    71  68  90 CALM      30.11S
SOMERSET       CLEAR     70  70 100 CALM      30.10S
MIDDLESBORO    PTCLDY    69  67  94 CALM      30.12S
MONTICELLO     SUNNY     68  67  96 CALM      30.10F FOG
$$



USA.gov is the U.S. government's official web portal to all federal, state and local government web resources and services.